| time (UTC) | temp F | wind direction | speed MPH | gust MPH | rain 1hr in | rain 24hr in | rain mn in | humidity % | barometer mb |
| 20260505130135 | 44 | 188 | 3.0 | 7.0 | 0.00 | 0.09 | 0.09 | 94 | 1016.7 |
| 20260505124624 | 44 | 195 | 5.0 | 6.0 | 0.19 | 0.09 | 0.09 | 94 | 1016.9 |
| 20260505124121 | 44 | 132 | 3.0 | 10.0 | 0.17 | 0.08 | 0.08 | 94 | 1017.3 |
| 20260505123617 | 44 | 153 | 8.0 | 10.0 | 0.12 | 0.06 | 0.06 | 94 | 1017.3 |
| 20260505123114 | 44 | 176 | 3.0 | 7.0 | 0.07 | 0.05 | 0.05 | 94 | 1017.3 |
| 20260505122611 | 43 | 200 | 0.0 | 1.0 | 0.05 | 0.04 | 0.04 | 94 | 1017.0 |
| 20260505122108 | 43 | 207 | 0.0 | 0.0 | 0.07 | 0.03 | 0.03 | 93 | 1016.9 |
| 20260505121604 | 43 | 207 | 0.0 | 0.0 | 0.07 | 0.03 | 0.03 | 93 | 1016.7 |
| 20260505121101 | 43 | 205 | 0.0 | 1.0 | 0.05 | 0.02 | 0.02 | 93 | 1016.7 |
| 20260505120557 | 43 | 212 | 2.0 | 2.0 | 0.00 | 0.01 | 0.01 | 93 | 1016.9 |
| 20260505120053 | 43 | 222 | 1.0 | 2.0 | 0.00 | 0.01 | 0.01 | 92 | 1016.9 |
| 20260505115548 | 43 | 225 | 0.0 | 2.0 | 0.00 | 0.01 | 0.01 | 92 | 1016.9 |
| 20260505115045 | 44 | 206 | 0.0 | 1.0 | 0.00 | 0.01 | 0.01 | 92 | 1017.0 |
| 20260505114542 | 44 | 222 | 0.0 | 0.0 | 0.07 | 0.01 | 0.01 | 92 | 1017.2 |
| 20260505114038 | 44 | 218 | 0.0 | 1.0 | 0.07 | 0.01 | 0.01 | 91 | 1017.3 |
| 20260505113535 | 44 | 196 | 1.0 | 2.0 | 0.00 | 0.00 | 0.00 | 91 | 1017.5 |
| 20260505113032 | 45 | 205 | 2.0 | 3.0 | 0.00 | 0.00 | 0.00 | 91 | 1017.2 |
| 20260505112528 | 45 | 201 | 2.0 | 4.0 | 0.00 | 0.00 | 0.00 | 90 | 1017.6 |
| 20260505112026 | 45 | 191 | 1.0 | 3.0 | 0.00 | 0.00 | 0.00 | 90 | 1017.3 |
| 20260505111520 | 45 | 200 | 2.0 | 4.0 | 0.00 | 0.00 | 0.00 | 89 | 1017.5 |
| 20260505111016 | 45 | 185 | 4.0 | 7.0 | 0.00 | 0.00 | 0.00 | 88 | 1017.4 |
| 20260505110513 | 45 | 188 | 4.0 | 9.0 | 0.00 | 0.00 | 0.00 | 88 | 1017.3 |
| 20260505101945 | 47 | 158 | 6.0 | 9.0 | 0.00 | 0.00 | 0.00 | 82 | 1017.4 |
| 20260505101443 | 48 | 162 | 7.0 | 9.0 | 0.00 | 0.00 | 0.00 | 79 | 1017.6 |
| 20260505100939 | 48 | 131 | 8.0 | 9.0 | 0.00 | 0.00 | 0.00 | 75 | 1017.6 |
| 20260505100437 | 48 | 143 | 8.0 | 15.0 | 0.00 | 0.00 | 0.00 | 74 | 1017.4 |
| 20260505095933 | 48 | 154 | 7.0 | 17.0 | 0.00 | 0.00 | 0.00 | 73 | 1017.5 |
| 20260505095430 | 48 | 139 | 13.0 | 17.0 | 0.00 | 0.00 | 0.00 | 73 | 1017.2 |
| 20260505094926 | 48 | 170 | 7.0 | 15.0 | 0.00 | 0.00 | 0.00 | 73 | 1017.3 |
| 20260505094423 | 48 | 192 | 6.0 | 17.0 | 0.00 | 0.00 | 0.00 | 73 | 1017.2 |
| 20260505093919 | 48 | 193 | 6.0 | 14.0 | 0.00 | 0.00 | 0.00 | 73 | 1017.2 |
| 20260505093416 | 48 | 168 | 8.0 | 15.0 | 0.00 | 0.00 | 0.00 | 73 | 1017.2 |
| 20260505092913 | 48 | 124 | 9.0 | 17.0 | 0.00 | 0.00 | 0.00 | 72 | 1017.3 |
| 20260505092411 | 48 | 161 | 9.0 | 15.0 | 0.00 | 0.00 | 0.00 | 72 | 1017.4 |
| 20260505091908 | 48 | 147 | 10.0 | 16.0 | 0.00 | 0.00 | 0.00 | 72 | 1017.3 |
| 20260505091406 | 49 | 184 | 11.0 | 17.0 | 0.00 | 0.00 | 0.00 | 72 | 1017.2 |
| 20260505090903 | 49 | 87 | 9.0 | 18.0 | 0.00 | 0.00 | 0.00 | 71 | 1017.0 |
| 20260505090402 | 49 | 121 | 11.0 | 25.0 | 0.00 | 0.00 | 0.00 | 71 | 1017.2 |
| 20260505085859 | 49 | 114 | 10.0 | 25.0 | 0.00 | 0.00 | 0.00 | 71 | 1017.4 |
| 20260505085357 | 49 | 131 | 7.0 | 16.0 | 0.00 | 0.00 | 0.00 | 70 | 1017.3 |
| 20260505084854 | 49 | 146 | 10.0 | 19.0 | 0.00 | 0.00 | 0.00 | 70 | 1017.3 |
| 20260505084352 | 49 | 171 | 9.0 | 18.0 | 0.00 | 0.00 | 0.00 | 70 | 1017.3 |
| 20260505083850 | 49 | 126 | 11.0 | 17.0 | 0.00 | 0.00 | 0.00 | 69 | 1017.3 |
| 20260505083347 | 49 | 152 | 13.0 | 17.0 | 0.00 | 0.00 | 0.00 | 69 | 1017.5 |
| 20260505082843 | 49 | 127 | 4.0 | 13.0 | 0.00 | 0.00 | 0.00 | 68 | 1017.3 |
| 20260505082339 | 49 | 139 | 9.0 | 14.0 | 0.00 | 0.00 | 0.00 | 67 | 1017.3 |
| 20260505081836 | 49 | 152 | 7.0 | 16.0 | 0.00 | 0.00 | 0.00 | 67 | 1017.5 |
| 20260505081333 | 49 | 158 | 12.0 | 17.0 | 0.00 | 0.00 | 0.00 | 67 | 1017.6 |
| 20260505080830 | 49 | 141 | 6.0 | 15.0 | 0.00 | 0.00 | 0.00 | 66 | 1017.8 |
| 20260505080325 | 49 | 106 | 5.0 | 16.0 | 0.00 | 0.00 | 0.00 | 65 | 1017.8 |
| 20260505075821 | 49 | 186 | 4.0 | 6.0 | 0.00 | 0.00 | 0.00 | 65 | 1017.8 |
| 20260505075318 | 49 | 132 | 7.0 | 10.0 | 0.00 | 0.00 | 0.00 | 65 | 1017.8 |
| 20260505074816 | 49 | 170 | 4.0 | 14.0 | 0.00 | 0.00 | 0.00 | 66 | 1017.8 |
| 20260505074313 | 49 | 174 | 5.0 | 10.0 | 0.00 | 0.00 | 0.00 | 66 | 1017.6 |
| 20260505073810 | 49 | 160 | 4.0 | 8.0 | 0.00 | 0.00 | 0.00 | 66 | 1017.9 |
| 20260505073308 | 49 | 181 | 6.0 | 11.0 | 0.00 | 0.00 | 0.00 | 66 | 1017.6 |
| 20260505072805 | 49 | 179 | 8.0 | 10.0 | 0.00 | 0.00 | 0.00 | 66 | 1017.6 |
| 20260505072301 | 50 | 135 | 9.0 | 21.0 | 0.00 | 0.00 | 0.00 | 66 | 1017.8 |
| 20260505071756 | 50 | 118 | 11.0 | 16.0 | 0.00 | 0.00 | 0.00 | 66 | 1017.9 |
| 20260505071253 | 50 | 92 | 10.0 | 11.0 | 0.00 | 0.00 | 0.00 | 66 | 1018.2 |
| 20260505070751 | 50 | 136 | 5.0 | 13.0 | 0.00 | 0.00 | 0.00 | 65 | 1018.2 |
| 20260505070247 | 50 | 110 | 7.0 | 11.0 | 0.00 | 0.00 | 0.00 | 65 | 1018.4 |
| 20260505065743 | 50 | 126 | 9.0 | 10.0 | 0.00 | 0.00 | 0.00 | 65 | 1018.2 |
| 20260505065240 | 50 | 158 | 7.0 | 10.0 | 0.00 | 0.00 | 0.00 | 64 | 1018.5 |
| 20260505064737 | 50 | 186 | 1.0 | 4.0 | 0.00 | 0.00 | 0.00 | 64 | 1018.7 |
| 20260505064234 | 50 | 174 | 7.0 | 10.0 | 0.00 | 0.00 | 0.00 | 64 | 1018.7 |
| 20260505063732 | 50 | 212 | 3.0 | 10.0 | 0.00 | 0.00 | 0.00 | 63 | 1018.9 |
| 20260505063228 | 50 | 81 | 3.0 | 6.0 | 0.00 | 0.00 | 0.00 | 63 | 1018.7 |
| 20260505062724 | 50 | 164 | 5.0 | 10.0 | 0.00 | 0.00 | 0.00 | 62 | 1018.5 |
| 20260505062222 | 50 | 112 | 5.0 | 10.0 | 0.00 | 0.00 | 0.00 | 62 | 1018.9 |
| 20260505061719 | 50 | 188 | 7.0 | 11.0 | 0.00 | 0.00 | 0.00 | 61 | 1019.1 |
| 20260505061217 | 51 | 83 | 5.0 | 13.0 | 0.00 | 0.00 | 0.00 | 59 | 1019.1 |
| 20260505060714 | 51 | 207 | 5.0 | 7.0 | 0.00 | 0.00 | 0.00 | 57 | 1019.2 |
| 20260505060211 | 51 | 118 | 4.0 | 8.0 | 0.00 | 0.00 | 0.00 | 56 | 1019.5 |
| 20260505055706 | 51 | 157 | 3.0 | 3.0 | 0.00 | 0.00 | 0.00 | 54 | 1019.1 |
| 20260505055203 | 51 | 147 | 4.0 | 6.0 | 0.00 | 0.00 | 0.00 | 54 | 1019.0 |
| 20260505054700 | 51 | 120 | 3.0 | 9.0 | 0.00 | 0.00 | 0.00 | 54 | 1019.0 |
| 20260505054158 | 51 | 107 | 3.0 | 7.0 | 0.00 | 0.00 | 0.00 | 53 | 1018.9 |
| 20260505053656 | 51 | 269 | 5.0 | 9.0 | 0.00 | 0.00 | 0.00 | 53 | 1019.1 |
| 20260505053152 | 51 | 133 | 6.0 | 11.0 | 0.00 | 0.00 | 0.00 | 53 | 1019.1 |
| 20260505052649 | 51 | 27 | 3.0 | 10.0 | 0.00 | 0.00 | 0.00 | 52 | 1019.1 |
| 20260505052146 | 51 | 150 | 5.0 | 11.0 | 0.00 | 0.00 | 0.00 | 51 | 1019.3 |
| 20260505051643 | 51 | 159 | 6.0 | 13.0 | 0.00 | 0.00 | 0.00 | 51 | 1019.6 |
| 20260505051141 | 51 | 111 | 8.0 | 11.0 | 0.00 | 0.00 | 0.00 | 51 | 1019.6 |
| 20260505050639 | 51 | 121 | 4.0 | 9.0 | 0.00 | 0.00 | 0.00 | 51 | 1019.5 |
| 20260505050137 | 51 | 164 | 7.0 | 11.0 | 0.00 | 0.00 | 0.00 | 51 | 1019.5 |
| 20260505041606 | 52 | 166 | 8.0 | 13.0 | 0.00 | 0.00 | 0.00 | 50 | 1019.3 |
| 20260505041104 | 52 | 134 | 7.0 | 15.0 | 0.00 | 0.00 | 0.00 | 50 | 1019.5 |
| 20260505040601 | 52 | 107 | 4.0 | 10.0 | 0.00 | 0.00 | 0.00 | 50 | 1019.5 |
| 20260505040058 | 52 | 77 | 7.0 | 15.0 | 0.00 | 0.00 | 0.00 | 50 | 1019.6 |
| 20260505035554 | 52 | 150 | 2.0 | 11.0 | 0.00 | 0.00 | 0.00 | 49 | 1019.2 |
| 20260505035051 | 53 | 131 | 5.0 | 10.0 | 0.00 | 0.00 | 0.00 | 49 | 1018.9 |
| 20260505034547 | 53 | 96 | 8.0 | 14.0 | 0.00 | 0.00 | 0.00 | 48 | 1018.9 |
| 20260505034044 | 53 | 105 | 9.0 | 15.0 | 0.00 | 0.00 | 0.00 | 48 | 1018.5 |
| 20260505033541 | 53 | 103 | 13.0 | 18.0 | 0.00 | 0.00 | 0.00 | 47 | 1018.5 |
| 20260505033040 | 53 | 173 | 8.0 | 15.0 | 0.00 | 0.00 | 0.00 | 47 | 1018.2 |
| 20260505032537 | 53 | 124 | 5.0 | 15.0 | 0.00 | 0.00 | 0.00 | 46 | 1018.2 |
| 20260505032033 | 53 | 123 | 9.0 | 16.0 | 0.00 | 0.00 | 0.00 | 46 | 1018.2 |
| 20260505031531 | 53 | 161 | 6.0 | 16.0 | 0.00 | 0.00 | 0.00 | 45 | 1018.2 |
| 20260505031027 | 53 | 139 | 12.0 | 18.0 | 0.00 | 0.00 | 0.00 | 45 | 1018.2 |
| 20260505030524 | 54 | 176 | 12.0 | 18.0 | 0.00 | 0.00 | 0.00 | 44 | 1017.8 |
| 20260505030020 | 54 | 163 | 11.0 | 15.0 | 0.00 | 0.00 | 0.00 | 44 | 1017.8 |
| 20260505025516 | 54 | 202 | 11.0 | 21.0 | 0.00 | 0.00 | 0.00 | 44 | 1017.4 |
| 20260505025015 | 54 | 149 | 12.0 | 15.0 | 0.00 | 0.00 | 0.00 | 43 | 1017.6 |
| 20260505024511 | 54 | 137 | 10.0 | 17.0 | 0.00 | 0.00 | 0.00 | 43 | 1017.9 |
| 20260505024009 | 54 | 176 | 10.0 | 16.0 | 0.00 | 0.00 | 0.00 | 42 | 1017.8 |
| 20260505023505 | 54 | 124 | 15.0 | 22.0 | 0.00 | 0.00 | 0.00 | 41 | 1017.6 |
| 20260505023003 | 54 | 180 | 12.0 | 25.0 | 0.00 | 0.00 | 0.00 | 41 | 1017.6 |
| 20260505022501 | 54 | 131 | 9.0 | 21.0 | 0.00 | 0.00 | 0.00 | 40 | 1017.8 |
| 20260505021958 | 55 | 153 | 7.0 | 22.0 | 0.00 | 0.00 | 0.00 | 40 | 1017.5 |
| 20260505021454 | 55 | 191 | 14.0 | 26.0 | 0.00 | 0.00 | 0.00 | 40 | 1017.3 |
| 20260505020949 | 55 | 119 | 13.0 | 19.0 | 0.00 | 0.00 | 0.00 | 40 | 1017.3 |
| 20260505020445 | 55 | 134 | 10.0 | 21.0 | 0.00 | 0.00 | 0.00 | 39 | 1017.6 |
| 20260505015942 | 55 | 155 | 9.0 | 17.0 | 0.00 | 0.00 | 0.00 | 41 | 1017.3 |
| 20260505015439 | 55 | 85 | 8.0 | 16.0 | 0.00 | 0.00 | 0.00 | 42 | 1017.6 |
| 20260505014937 | 55 | 156 | 9.0 | 16.0 | 0.00 | 0.00 | 0.00 | 41 | 1017.6 |
| 20260505014433 | 55 | 189 | 9.0 | 21.0 | 0.00 | 0.00 | 0.00 | 40 | 1017.6 |
| 20260505013930 | 56 | 173 | 12.0 | 23.0 | 0.00 | 0.00 | 0.00 | 39 | 1017.6 |
| 20260505013427 | 56 | 106 | 11.0 | 22.0 | 0.00 | 0.00 | 0.00 | 38 | 1017.5 |
| 20260505012925 | 56 | 178 | 6.0 | 21.0 | 0.00 | 0.00 | 0.00 | 38 | 1017.5 |
| 20260505012423 | 56 | 192 | 9.0 | 17.0 | 0.00 | 0.00 | 0.00 | 38 | 1017.6 |
| 20260505011919 | 56 | 108 | 12.0 | 17.0 | 0.00 | 0.00 | 0.00 | 38 | 1017.6 |
| 20260505011416 | 56 | 120 | 10.0 | 25.0 | 0.00 | 0.00 | 0.00 | 37 | 1017.6 |
| 20260505010912 | 57 | 78 | 10.0 | 24.0 | 0.00 | 0.00 | 0.00 | 37 | 1017.8 |
| 20260505010408 | 57 | 121 | 12.0 | 23.0 | 0.00 | 0.00 | 0.00 | 38 | 1017.2 |
| 20260505005904 | 57 | 140 | 15.0 | 23.0 | 0.00 | 0.00 | 0.00 | 37 | 1017.4 |
| 20260505005401 | 57 | 163 | 7.0 | 25.0 | 0.00 | 0.00 | 0.00 | 37 | 1017.4 |
| 20260505004859 | 57 | 171 | 10.0 | 22.0 | 0.00 | 0.00 | 0.00 | 37 | 1017.6 |
| 20260505004355 | 58 | 130 | 15.0 | 21.0 | 0.00 | 0.00 | 0.00 | 36 | 1017.6 |
| 20260505003852 | 58 | 153 | 17.0 | 24.0 | 0.00 | 0.00 | 0.00 | 35 | 1017.5 |
| 20260505003349 | 59 | 98 | 17.0 | 25.0 | 0.00 | 0.00 | 0.00 | 34 | 1017.6 |
| 20260505002845 | 59 | 182 | 15.0 | 25.0 | 0.00 | 0.00 | 0.00 | 33 | 1017.6 |
| 20260505002342 | 59 | 133 | 13.0 | 19.0 | 0.00 | 0.00 | 0.00 | 32 | 1017.9 |
| 20260505001841 | 59 | 150 | 15.0 | 22.0 | 0.00 | 0.00 | 0.00 | 31 | 1017.5 |
| 20260505001337 | 59 | 158 | 12.0 | 22.0 | 0.00 | 0.00 | 0.00 | 31 | 1017.8 |
| 20260505000835 | 59 | 113 | 15.0 | 25.0 | 0.00 | 0.00 | 0.00 | 31 | 1017.5 |
| 20260505000332 | 60 | 183 | 16.0 | 24.0 | 0.00 | 0.00 | 0.00 | 31 | 1017.6 |
| 20260504235829 | 60 | 153 | 17.0 | 21.0 | 0.00 | 0.00 | 0.00 | 31 | 1017.4 |
| 20260504235326 | 60 | 156 | 11.0 | 25.0 | 0.00 | 0.00 | 0.00 | 31 | 1017.5 |
| 20260504234822 | 61 | 100 | 10.0 | 25.0 | 0.00 | 0.00 | 0.00 | 30 | 1017.3 |
| 20260504234320 | 61 | 161 | 17.0 | 25.0 | 0.00 | 0.00 | 0.00 | 30 | 1017.4 |
| 20260504233816 | 61 | 129 | 16.0 | 22.0 | 0.00 | 0.00 | 0.00 | 29 | 1017.5 |
| 20260504233312 | 62 | 141 | 10.0 | 17.0 | 0.00 | 0.00 | 0.00 | 29 | 1017.5 |
| 20260504232809 | 62 | 182 | 5.0 | 13.0 | 0.00 | 0.00 | 0.00 | 29 | 1017.5 |
| 20260504232306 | 62 | 161 | 13.0 | 23.0 | 0.00 | 0.00 | 0.00 | 29 | 1017.6 |
| 20260504231803 | 62 | 193 | 18.0 | 23.0 | 0.00 | 0.00 | 0.00 | 28 | 1017.8 |
| 20260504231259 | 62 | 138 | 11.0 | 19.0 | 0.00 | 0.00 | 0.00 | 28 | 1017.6 |
| 20260504230755 | 62 | 173 | 11.0 | 21.0 | 0.00 | 0.00 | 0.00 | 27 | 1017.5 |
| 20260504230254 | 62 | 174 | 10.0 | 22.0 | 0.00 | 0.00 | 0.00 | 28 | 1017.8 |
| 20260504225752 | 63 | 120 | 15.0 | 27.0 | 0.00 | 0.00 | 0.00 | 27 | 1017.8 |
| 20260504225248 | 63 | 162 | 12.0 | 25.0 | 0.00 | 0.00 | 0.00 | 27 | 1017.5 |
| 20260504224746 | 63 | 171 | 10.0 | 18.0 | 0.00 | 0.00 | 0.00 | 26 | 1017.6 |
| 20260504224243 | 64 | 156 | 15.0 | 23.0 | 0.00 | 0.00 | 0.00 | 26 | 1017.5 |
| 20260504223739 | 64 | 128 | 9.0 | 19.0 | 0.00 | 0.00 | 0.00 | 25 | 1017.8 |
| 20260504223235 | 64 | 90 | 11.0 | 24.0 | 0.00 | 0.00 | 0.00 | 25 | 1017.8 |
| 20260504222732 | 64 | 208 | 19.0 | 32.0 | 0.00 | 0.00 | 0.00 | 25 | 1017.8 |
| 20260504222228 | 64 | 154 | 12.0 | 22.0 | 0.00 | 0.00 | 0.00 | 26 | 1017.5 |
| 20260504221726 | 64 | 176 | 14.0 | 24.0 | 0.00 | 0.00 | 0.00 | 25 | 1017.5 |
| 20260504221223 | 64 | 126 | 15.0 | 24.0 | 0.00 | 0.00 | 0.00 | 25 | 1017.5 |
| 20260504220720 | 65 | 159 | 15.0 | 27.0 | 0.00 | 0.00 | 0.00 | 25 | 1017.4 |
| 20260504220217 | 66 | 99 | 12.0 | 19.0 | 0.00 | 0.00 | 0.00 | 24 | 1017.5 |
| 20260504215714 | 66 | 139 | 10.0 | 16.0 | 0.00 | 0.00 | 0.00 | 24 | 1017.4 |
| 20260504215211 | 66 | 97 | 7.0 | 19.0 | 0.00 | 0.00 | 0.00 | 24 | 1017.6 |
| 20260504214706 | 66 | 89 | 10.0 | 22.0 | 0.00 | 0.00 | 0.00 | 24 | 1017.9 |
| 20260504214203 | 66 | 175 | 12.0 | 18.0 | 0.00 | 0.00 | 0.00 | 24 | 1017.8 |
| 20260504213700 | 66 | 168 | 15.0 | 23.0 | 0.00 | 0.00 | 0.00 | 25 | 1017.9 |
| 20260504213156 | 66 | 162 | 17.0 | 30.0 | 0.00 | 0.00 | 0.00 | 24 | 1017.8 |
| 20260504212653 | 66 | 105 | 14.0 | 21.0 | 0.00 | 0.00 | 0.00 | 23 | 1018.1 |
| 20260504212150 | 67 | 132 | 15.0 | 22.0 | 0.00 | 0.00 | 0.00 | 23 | 1018.1 |
| 20260504211647 | 67 | 113 | 10.0 | 31.0 | 0.00 | 0.00 | 0.00 | 23 | 1018.0 |
| 20260504211143 | 68 | 150 | 13.0 | 19.0 | 0.00 | 0.00 | 0.00 | 23 | 1017.9 |
| 20260504210641 | 66 | 169 | 12.0 | 17.0 | 0.00 | 0.00 | 0.00 | 25 | 1018.1 |
| 20260504210137 | 65 | 131 | 18.0 | 29.0 | 0.00 | 0.00 | 0.00 | 25 | 1018.2 |
| 20260504205635 | 65 | 124 | 10.0 | 21.0 | 0.00 | 0.00 | 0.00 | 24 | 1018.4 |
| 20260504205132 | 66 | 119 | 17.0 | 25.0 | 0.00 | 0.00 | 0.00 | 24 | 1018.2 |
| 20260504204631 | 66 | 137 | 10.0 | 19.0 | 0.00 | 0.00 | 0.00 | 24 | 1018.5 |
| 20260504204129 | 66 | 96 | 14.0 | 18.0 | 0.00 | 0.00 | 0.00 | 26 | 1018.4 |
| 20260504203628 | 66 | 127 | 8.0 | 21.0 | 0.00 | 0.00 | 0.00 | 26 | 1018.2 |
| 20260504203125 | 66 | 163 | 14.0 | 24.0 | 0.00 | 0.00 | 0.00 | 27 | 1018.4 |
| 20260504202625 | 66 | 141 | 10.0 | 14.0 | 0.00 | 0.00 | 0.00 | 26 | 1018.2 |
| 20260504202122 | 65 | 129 | 9.0 | 17.0 | 0.00 | 0.00 | 0.00 | 27 | 1018.4 |
| 20260504201619 | 66 | 157 | 12.0 | 16.0 | 0.00 | 0.00 | 0.00 | 26 | 1018.4 |
| 20260504201117 | 65 | 187 | 9.0 | 13.0 | 0.00 | 0.00 | 0.00 | 27 | 1018.4 |
| 20260504200614 | 64 | 177 | 8.0 | 17.0 | 0.00 | 0.00 | 0.00 | 28 | 1018.1 |
| 20260504200110 | 64 | 121 | 9.0 | 23.0 | 0.00 | 0.00 | 0.00 | 26 | 1018.2 |
| 20260504195606 | 64 | 157 | 14.0 | 21.0 | 0.00 | 0.00 | 0.00 | 26 | 1018.4 |
| 20260504195103 | 64 | 210 | 10.0 | 15.0 | 0.00 | 0.00 | 0.00 | 26 | 1018.2 |
| 20260504194600 | 64 | 151 | 12.0 | 23.0 | 0.00 | 0.00 | 0.00 | 24 | 1018.5 |
| 20260504194055 | 64 | 106 | 6.0 | 16.0 | 0.00 | 0.00 | 0.00 | 25 | 1018.5 |
| 20260504193552 | 64 | 150 | 13.0 | 21.0 | 0.00 | 0.00 | 0.00 | 26 | 1018.7 |
| 20260504193050 | 64 | 155 | 12.0 | 18.0 | 0.00 | 0.00 | 0.00 | 28 | 1019.3 |
| 20260504192548 | 64 | 128 | 10.0 | 18.0 | 0.00 | 0.00 | 0.00 | 28 | 1019.2 |
| 20260504192046 | 64 | 163 | 14.0 | 23.0 | 0.00 | 0.00 | 0.00 | 29 | 1019.3 |
| 20260504191544 | 65 | 241 | 11.0 | 23.0 | 0.00 | 0.00 | 0.00 | 28 | 1019.5 |
| 20260504191040 | 64 | 150 | 8.0 | 18.0 | 0.00 | 0.00 | 0.00 | 29 | 1019.0 |
| 20260504190536 | 63 | 140 | 14.0 | 23.0 | 0.00 | 0.00 | 0.00 | 28 | 1019.3 |
| 20260504190032 | 64 | 176 | 13.0 | 21.0 | 0.00 | 0.00 | 0.00 | 29 | 1019.6 |
| 20260504185530 | 64 | 126 | 15.0 | 27.0 | 0.00 | 0.00 | 0.00 | 29 | 1019.3 |
| 20260504185026 | 64 | 89 | 7.0 | 17.0 | 0.00 | 0.00 | 0.00 | 29 | 1019.8 |
| 20260504184521 | 64 | 118 | 7.0 | 17.0 | 0.00 | 0.00 | 0.00 | 28 | 1019.7 |
| 20260504184017 | 64 | 84 | 14.0 | 18.0 | 0.00 | 0.00 | 0.00 | 30 | 1020.0 |
| 20260504183514 | 65 | 121 | 13.0 | 19.0 | 0.00 | 0.00 | 0.00 | 29 | 1019.8 |
| 20260504183013 | 65 | 175 | 11.0 | 15.0 | 0.00 | 0.00 | 0.00 | 27 | 1020.2 |
| 20260504182509 | 65 | 117 | 14.0 | 18.0 | 0.00 | 0.00 | 0.00 | 29 | 1020.1 |
| 20260504182006 | 64 | 173 | 11.0 | 21.0 | 0.00 | 0.00 | 0.00 | 30 | 1020.3 |
| 20260504181503 | 63 | 137 | 12.0 | 19.0 | 0.00 | 0.00 | 0.00 | 30 | 1020.2 |
| 20260504181002 | 63 | 184 | 11.0 | 19.0 | 0.00 | 0.00 | 0.00 | 31 | 1020.0 |
| 20260504180500 | 62 | 201 | 10.0 | 17.0 | 0.00 | 0.00 | 0.00 | 32 | 1020.2 |
| 20260504175958 | 62 | 134 | 13.0 | 23.0 | 0.00 | 0.00 | 0.00 | 32 | 1020.2 |
| 20260504175455 | 61 | 172 | 12.0 | 17.0 | 0.00 | 0.00 | 0.00 | 33 | 1020.2 |
| 20260504174952 | 61 | 156 | 8.0 | 16.0 | 0.00 | 0.00 | 0.00 | 32 | 1020.6 |
| 20260504174450 | 60 | 168 | 9.0 | 13.0 | 0.00 | 0.00 | 0.00 | 33 | 1020.6 |
| 20260504173947 | 60 | 164 | 5.0 | 15.0 | 0.00 | 0.00 | 0.00 | 34 | 1020.6 |
| 20260504173443 | 60 | 103 | 13.0 | 18.0 | 0.00 | 0.00 | 0.00 | 34 | 1020.6 |
| 20260504172941 | 60 | 134 | 9.0 | 18.0 | 0.00 | 0.00 | 0.00 | 34 | 1020.7 |
| 20260504172437 | 61 | 141 | 9.0 | 14.0 | 0.00 | 0.00 | 0.00 | 34 | 1020.4 |
| 20260504171934 | 60 | 118 | 8.0 | 17.0 | 0.00 | 0.00 | 0.00 | 35 | 1020.6 |
| 20260504171431 | 60 | 144 | 6.0 | 16.0 | 0.00 | 0.00 | 0.00 | 35 | 1020.3 |
| 20260504170928 | 59 | 213 | 7.0 | 10.0 | 0.00 | 0.00 | 0.00 | 36 | 1020.8 |
| 20260504170424 | 59 | 184 | 7.0 | 15.0 | 0.00 | 0.00 | 0.00 | 37 | 1020.6 |
| 20260504160343 | 57 | 156 | 8.0 | 19.0 | 0.00 | 0.00 | 0.00 | 38 | 1020.2 |
| 20260504150808 | 54 | 71 | 10.0 | 13.0 | 0.00 | 0.00 | 0.00 | 50 | 1020.4 |
| 20260504150304 | 54 | 117 | 9.0 | 13.0 | 0.00 | 0.00 | 0.00 | 50 | 1020.6 |
| 20260504141234 | 52 | 138 | 6.0 | 8.0 | 0.00 | 0.00 | 0.00 | 53 | 1020.8 |
| 20260504140731 | 52 | 190 | 2.0 | 6.0 | 0.00 | 0.00 | 0.00 | 53 | 1020.8 |
| 20260504140226 | 52 | 193 | 2.0 | 7.0 | 0.00 | 0.00 | 0.00 | 54 | 1020.6 |